Hourly Weather Port Said

Today, 25 September, Friday

Time Temperature Precipitation Wind Pressure Humidity
00:00 +24°C° 0 mm 3 mps 759 mmHg 80%
01:00 +24°C° 0 mm 3 mps 759 mmHg 82%
02:00 +24°C° 0 mm 3 mps 759 mmHg 86%
03:00 +22°C° 0 mm 3 mps 759 mmHg 87%
04:00 +22°C° 0 mm 3 mps 759 mmHg 88%
05:00 +22°C° 0 mm 3 mps 759 mmHg 89%
06:00 +25°C° 0 mm 3 mps 759 mmHg 81%
07:00 +26°C° 0 mm 3 mps 759 mmHg 73%
08:00 +28°C° 0 mm 3 mps 759 mmHg 66%
09:00 +30°C° 0 mm 3 mps 759 mmHg 56%
10:00 +33°C° 0 mm 3 mps 759 mmHg 47%
11:00 +35°C° 0 mm 4 mps 759 mmHg 37%
12:00 +35°C° 0 mm 5 mps 758 mmHg 39%
13:00 +35°C° 0 mm 6 mps 758 mmHg 42%
14:00 +35°C° 0 mm 7 mps 757 mmHg 44%
15:00 +34°C° 0 mm 7 mps 757 mmHg 49%
16:00 +33°C° 0 mm 7 mps 757 mmHg 53%
17:00 +32°C° 0 mm 8 mps 757 mmHg 58%
18:00 +29°C° 0 mm 6 mps 757 mmHg 62%
19:00 +28°C° 0 mm 5 mps 758 mmHg 67%
20:00 +27°C° 0 mm 4 mps 758 mmHg 71%
21:00 +26°C° 0 mm 4 mps 758 mmHg 74%
22:00 +25°C° 0 mm 3 mps 758 mmHg 77%
23:00 +25°C° 0 mm 2 mps 758 mmHg 80%

Tomorrow, 26 September, Saturday

Time Temperature Precipitation Wind Pressure Humidity
00:00 +24°C° 0 mm 2 mps 758 mmHg 81%
01:00 +24°C° 0 mm 2 mps 757 mmHg 83%
02:00 +24°C° 0 mm 2 mps 757 mmHg 85%
03:00 +24°C° 0 mm 3 mps 757 mmHg 86%
04:00 +22°C° 0 mm 3 mps 757 mmHg 87%
05:00 +22°C° 0 mm 3 mps 757 mmHg 89%
06:00 +25°C° 0 mm 3 mps 757 mmHg 81%
07:00 +26°C° 0 mm 3 mps 757 mmHg 73%
08:00 +28°C° 0 mm 3 mps 757 mmHg 65%
09:00 +29°C° 0 mm 3 mps 758 mmHg 57%
10:00 +31°C° 0 mm 3 mps 758 mmHg 48%
11:00 +34°C° 0 mm 3 mps 758 mmHg 39%
12:00 +34°C° 0 mm 4 mps 757 mmHg 40%
13:00 +34°C° 0 mm 5 mps 757 mmHg 41%
14:00 +34°C° 0 mm 5 mps 757 mmHg 43%
15:00 +33°C° 0 mm 5 mps 757 mmHg 47%
16:00 +32°C° 0 mm 6 mps 757 mmHg 51%
17:00 +30°C° 0 mm 6 mps 757 mmHg 55%
18:00 +29°C° 0 mm 5 mps 757 mmHg 59%
19:00 +28°C° 0 mm 5 mps 757 mmHg 63%
20:00 +27°C° 0 mm 5 mps 758 mmHg 67%
21:00 +27°C° 0 mm 4 mps 758 mmHg 67%
22:00 +26°C° 0 mm 4 mps 758 mmHg 67%
23:00 +26°C° 0 mm 4 mps 759 mmHg 67%

Day after tomorrow, 27 September, Sunday

Time Temperature Precipitation Wind Pressure Humidity
00:00 +26°C° 0 mm 4 mps 758 mmHg 68%
01:00 +26°C° 0 mm 4 mps 758 mmHg 68%
02:00 +25°C° 0 mm 4 mps 758 mmHg 69%
03:00 +25°C° 0 mm 4 mps 758 mmHg 69%
04:00 +25°C° 0 mm 4 mps 759 mmHg 69%
05:00 +25°C° 0 mm 4 mps 759 mmHg 70%
06:00 +26°C° 0 mm 4 mps 759 mmHg 64%
07:00 +28°C° 0 mm 4 mps 759 mmHg 59%
08:00 +29°C° 0 mm 4 mps 760 mmHg 54%
09:00 +32°C° 0 mm 4 mps 760 mmHg 48%
10:00 +34°C° 0 mm 4 mps 760 mmHg 42%
11:00 +35°C° 0 mm 5 mps 760 mmHg 36%
12:00 +35°C° 0 mm 5 mps 759 mmHg 38%
13:00 +35°C° 0 mm 6 mps 759 mmHg 39%
14:00 +35°C° 0 mm 6 mps 758 mmHg 40%
15:00 +34°C° 0 mm 6 mps 759 mmHg 47%
16:00 +33°C° 0 mm 7 mps 759 mmHg 54%
17:00 +30°C° 0 mm 7 mps 759 mmHg 61%
18:00 +30°C° 0 mm 7 mps 759 mmHg 64%
19:00 +29°C° 0 mm 7 mps 760 mmHg 68%
20:00 +28°C° 0 mm 7 mps 761 mmHg 71%
21:00 +28°C° 0 mm 7 mps 761 mmHg 73%
22:00 +28°C° 0 mm 6 mps 761 mmHg 74%
23:00 +28°C° 0 mm 6 mps 761 mmHg 75%

28 September, Monday

Time Temperature Precipitation Wind Pressure Humidity
00:00 +28°C° 0 mm 6 mps 761 mmHg 76%
01:00 +28°C° 0 mm 6 mps 760 mmHg 76%
02:00 +27°C° 0 mm 5 mps 760 mmHg 77%
03:00 +27°C° 0 mm 5 mps 760 mmHg 79%
04:00 +27°C° 0 mm 5 mps 760 mmHg 82%
05:00 +27°C° 0 mm 5 mps 761 mmHg 84%
06:00 +29°C° 0 mm 5 mps 761 mmHg 76%
07:00 +30°C° 0 mm 5 mps 761 mmHg 68%
08:00 +33°C° 0 mm 6 mps 761 mmHg 60%
09:00 +34°C° 0 mm 6 mps 761 mmHg 52%
10:00 +36°C° 0 mm 6 mps 761 mmHg 45%
11:00 +38°C° 0 mm 6 mps 760 mmHg 38%
12:00 +38°C° 0 mm 6 mps 760 mmHg 38%
13:00 +38°C° 0 mm 6 mps 760 mmHg 37%
14:00 +38°C° 0 mm 6 mps 759 mmHg 37%
15:00 +36°C° 0 mm 7 mps 759 mmHg 44%
16:00 +34°C° 0 mm 7 mps 759 mmHg 52%
17:00 +33°C° 0 mm 7 mps 759 mmHg 60%
18:00 +32°C° 0 mm 7 mps 759 mmHg 65%
19:00 +30°C° 0 mm 6 mps 760 mmHg 70%
20:00 +29°C° 0 mm 6 mps 760 mmHg 75%
21:00 +29°C° 0 mm 6 mps 760 mmHg 77%
22:00 +28°C° 0 mm 5 mps 760 mmHg 79%
23:00 +28°C° 0 mm 5 mps 760 mmHg 80%

29 September, Tuesday

Time Temperature Precipitation Wind Pressure Humidity
00:00 +28°C° 0 mm 5 mps 760 mmHg 81%
01:00 +28°C° 0 mm 5 mps 760 mmHg 81%
02:00 +28°C° 0 mm 5 mps 759 mmHg 82%
03:00 +28°C° 0 mm 5 mps 759 mmHg 83%
04:00 +27°C° 0 mm 4 mps 759 mmHg 83%
05:00 +27°C° 0 mm 3 mps 759 mmHg 84%
06:00 +29°C° 0 mm 3 mps 759 mmHg 75%
07:00 +30°C° 0 mm 3 mps 759 mmHg 66%
08:00 +33°C° 0 mm 3 mps 759 mmHg 57%
09:00 +34°C° 0 mm 3 mps 759 mmHg 50%
10:00 +36°C° 0 mm 4 mps 759 mmHg 44%
11:00 +37°C° 0 mm 4 mps 758 mmHg 38%
12:00 +37°C° 0 mm 5 mps 758 mmHg 40%
13:00 +37°C° 0 mm 5 mps 757 mmHg 41%
14:00 +38°C° 0 mm 6 mps 757 mmHg 43%
15:00 +35°C° 0 mm 6 mps 756 mmHg 51%
16:00 +34°C° 0 mm 6 mps 756 mmHg 58%
17:00 +32°C° 0 mm 6 mps 756 mmHg 66%
18:00 +30°C° 0 mm 6 mps 756 mmHg 72%
19:00 +29°C° 0 mm 5 mps 757 mmHg 78%
20:00 +28°C° 0 mm 5 mps 757 mmHg 84%
21:00 +28°C° 0 mm 4 mps 757 mmHg 85%
22:00 +27°C° 0 mm 3 mps 757 mmHg 85%
23:00 +27°C° 0 mm 3 mps 757 mmHg 86%

30 September, Wednesday

Time Temperature Precipitation Wind Pressure Humidity
00:00 +27°C° 0 mm 2 mps 757 mmHg 87%
01:00 +26°C° 0 mm 2 mps 756 mmHg 87%
02:00 +26°C° 0 mm 2 mps 756 mmHg 87%
03:00 +26°C° 0 mm 2 mps 756 mmHg 87%
04:00 +25°C° 0 mm 2 mps 756 mmHg 87%
05:00 +25°C° 0 mm 2 mps 756 mmHg 87%
06:00 +27°C° 0 mm 3 mps 756 mmHg 78%
07:00 +29°C° 0 mm 3 mps 756 mmHg 68%
08:00 +31°C° 0 mm 3 mps 756 mmHg 59%
09:00 +34°C° 0 mm 3 mps 756 mmHg 52%
10:00 +35°C° 0 mm 4 mps 756 mmHg 45%
11:00 +37°C° 0 mm 4 mps 756 mmHg 38%
12:00 +36°C° 0 mm 5 mps 755 mmHg 42%
13:00 +36°C° 0 mm 6 mps 755 mmHg 46%
14:00 +35°C° 0 mm 7 mps 755 mmHg 50%
15:00 +33°C° 0 mm 7 mps 755 mmHg 57%
16:00 +32°C° 0 mm 7 mps 755 mmHg 64%
17:00 +29°C° 0 mm 7 mps 754 mmHg 71%
18:00 +28°C° 0 mm 6 mps 755 mmHg 74%
19:00 +28°C° 0 mm 6 mps 755 mmHg 77%
20:00 +27°C° 0 mm 5 mps 756 mmHg 80%
21:00 +26°C° 0 mm 4 mps 756 mmHg 78%
22:00 +26°C° 0 mm 4 mps 756 mmHg 76%
23:00 +25°C° 0 mm 4 mps 756 mmHg 75%
Show more